Weather History for KHDE - March, 2014

Change the Weather History Date:

Sunday, March 23, 2014

  Actual Average Record
Temperature  
Mean Temperature 23 °F -  
Max Temperature 39 °F 52 °F 86 °F (1967)
Min Temperature 7 °F 27 °F 2 °F (1965)
Degree Days  
Heating Degree Days 42    
Moisture  
Dew Point 17 °F    
Average Humidity 73    
Maximum Humidity 92    
Minimum Humidity 46    
Precipitation  
Precipitation 0.00 in - - ()
Sea Level Pressure  
Sea Level Pressure 30.34 in    
Wind  
Wind Speed 6 mph (South)    
Max Wind Speed 20 mph    
Max Gust Speed 23 mph    
Visibility 9 miles    
Events      
Averages and records for this station are not official NWS values.
T = Trace of Precipitation, MM = Missing Value Source: NWS Daily Summary

Daily Weather History Graph

Daily Weather History Graph

Search for Another Location

Airport or City:

Trip Planner

Search our weather history database for the weather conditions in past years. The results will help you decide how hot, cold, wet, or windy it might be!

Date:

Astronomy

Mar. 23, 2014 Rise Set
Actual Time 7:35 AM CDT 7:52 PM CDT
Civil Twilight 7:08 AM CDT 8:19 PM CDT
Nautical Twilight 6:36 AM CDT 8:51 PM CDT
Astronomical Twilight 6:03 AM CDT 9:24 PM CDT
Moon 2:12 AM CDT (3/23) 12:17 PM CDT (3/23)
Length of Visible Light 13h 11m
Length of Day
12h 16m
Waning Gibbous, 54% of the Moon is Illuminated
Mar 23
Waning Gibbous
Mar 23
Last Quarter
Mar 30
New
Apr 7
First Quarter
Apr 15
Full

Hourly Weather History & Observations

Time (CDT) Temp. Windchill Dew Point Humidity Pressure Visibility Wind Dir Wind Speed Gust Speed Precip Events Conditions
12:15 AM 13.5 °F 3.3 °F 10.8 °F 89% 30.50 in 10.0 mi North 6.9 mph - N/A   Clear
12:35 AM 16.0 °F 7.4 °F 13.5 °F 90% 30.50 in 10.0 mi North 5.8 mph - N/A   Clear
12:55 AM 13.1 °F 4.0 °F 10.4 °F 89% 30.49 in 10.0 mi NNW 5.8 mph - N/A   Clear
1:15 AM 11.1 °F 1.7 °F 8.6 °F 90% 30.50 in 10.0 mi NNW 5.8 mph - N/A   Clear
1:35 AM 10.6 °F 4.3 °F 8.1 °F 90% 30.50 in 10.0 mi NW 3.5 mph - N/A   Clear
1:55 AM 9.3 °F - 6.6 °F 89% 30.49 in 7.0 mi Calm Calm - N/A   Clear
2:15 AM 8.6 °F - 5.4 °F 87% 30.49 in 7.0 mi Calm Calm - N/A   Clear
2:35 AM 9.3 °F - 6.4 °F 88% 30.49 in 5.0 mi Calm Calm - N/A   Clear
2:55 AM 9.7 °F 3.2 °F 6.6 °F 87% 30.48 in 1.0 mi NW 3.5 mph - N/A   Mist
3:15 AM 10.8 °F - 7.9 °F 88% 30.48 in 10.0 mi Calm Calm - N/A   Clear
3:35 AM 11.7 °F - 8.8 °F 88% 30.47 in 10.0 mi Calm Calm - N/A   Clear
3:55 AM 10.0 °F - 6.6 °F 86% 30.47 in 10.0 mi Calm Calm - N/A   Clear
4:10 AM 10.0 °F - 6.8 °F 87% 30.47 in 10.0 mi Calm Calm - N/A   Clear
4:35 AM 8.1 °F 1.4 °F 5.0 °F 87% 30.47 in 10.0 mi West 3.5 mph - N/A   Clear
4:55 AM 9.0 °F - 5.7 °F 87% 30.47 in 10.0 mi Calm Calm - N/A   Clear
5:15 AM 7.3 °F - 3.6 °F 85% 30.47 in 7.0 mi Calm Calm - N/A   Clear
5:35 AM 8.6 °F - 5.7 °F 88% 30.47 in 5.0 mi Calm Calm - N/A   Clear
5:55 AM - - - N/A% 30.47 in 5.0 mi Calm Calm - N/A   Clear
6:15 AM - - - N/A% 30.47 in 7.0 mi West 3.5 mph - N/A   Clear
6:35 AM - - - N/A% 30.46 in 4.0 mi Calm Calm - N/A   Haze
6:55 AM - - - N/A% 30.46 in 1.5 mi Calm Calm - N/A   Mist
7:15 AM - - - N/A% 30.46 in 1.0 mi Calm Calm - N/A   Mist
7:35 AM - - - N/A% 30.46 in 10.0 mi Calm Calm - N/A   Clear
7:55 AM - - - N/A% 30.46 in 7.0 mi Calm Calm - N/A   Clear
8:15 AM - - - N/A% 30.47 in 7.0 mi Calm Calm - N/A   Clear
8:35 AM - - - N/A% 30.47 in 10.0 mi Calm Calm - N/A   Clear
8:55 AM - - - N/A% 30.46 in 10.0 mi Calm Calm - N/A   Clear
9:15 AM - - - N/A% 30.46 in 10.0 mi Calm Calm - N/A   Clear
9:35 AM - - - N/A% 30.46 in 7.0 mi Calm Calm - N/A   Clear
9:55 AM - - - N/A% 30.46 in 10.0 mi SSW 3.5 mph - N/A   Clear
10:15 AM - - - N/A% 30.45 in 10.0 mi SSW 3.5 mph - N/A   Clear
10:35 AM - - - N/A% 30.44 in 10.0 mi SSW 5.8 mph - N/A   Clear
10:55 AM 21.6 °F 13.0 °F 19.6 °F 92% 30.44 in 10.0 mi SSW 6.9 mph - N/A   Clear
11:15 AM 22.1 °F 13.7 °F 20.1 °F 92% 30.43 in 10.0 mi SW 6.9 mph - N/A   Clear
11:35 AM 22.6 °F 13.4 °F 20.7 °F 92% 30.43 in 10.0 mi SSW 8.1 mph - N/A   Clear
11:55 AM 24.1 °F 15.2 °F 18.5 °F 79% 30.42 in 10.0 mi SSW 8.1 mph - N/A   Clear
12:15 PM 24.6 °F 15.1 °F 17.1 °F 73% 30.41 in 10.0 mi SSW 9.2 mph - N/A   Scattered Clouds
12:35 PM 24.8 °F 12.9 °F 16.7 °F 71% 30.40 in 10.0 mi SSW 13.8 mph - N/A   Scattered Clouds
12:55 PM 25.5 °F 14.3 °F 16.5 °F 69% 30.39 in 10.0 mi SW 12.7 mph - N/A   Scattered Clouds
1:15 PM 26.1 °F 15.0 °F 17.4 °F 70% 30.38 in 10.0 mi SW 12.7 mph - N/A   Scattered Clouds
1:35 PM 26.6 °F 14.7 °F 17.6 °F 69% 30.36 in 10.0 mi South 15.0 mph 19.6 mph N/A   Scattered Clouds
1:55 PM 27.3 °F 16.1 °F 18.9 °F 70% 30.35 in 10.0 mi South 13.8 mph 17.3 mph N/A   Scattered Clouds
2:15 PM 28.4 °F 18.5 °F 19.4 °F 69% 30.34 in 10.0 mi South 11.5 mph 17.3 mph N/A   Scattered Clouds
2:35 PM 28.6 °F 18.7 °F 19.2 °F 68% 30.32 in 10.0 mi South 11.5 mph 19.6 mph N/A   Mostly Cloudy
2:55 PM 29.1 °F 19.4 °F 19.2 °F 67% 30.30 in 10.0 mi South 11.5 mph 19.6 mph N/A   Scattered Clouds
3:15 PM 29.8 °F 18.9 °F 19.6 °F 66% 30.27 in 10.0 mi South 15.0 mph 20.7 mph N/A   Scattered Clouds
3:35 PM 30.6 °F 19.8 °F 20.3 °F 66% 30.26 in 10.0 mi South 15.0 mph 19.6 mph N/A   Scattered Clouds
3:55 PM 30.7 °F 20.0 °F 21.2 °F 68% 30.24 in 10.0 mi South 15.0 mph 23.0 mph N/A   Mostly Cloudy
4:15 PM 31.8 °F 21.0 °F 22.5 °F 68% 30.22 in 10.0 mi South 16.1 mph 19.6 mph N/A   Overcast
4:35 PM 32.4 °F 21.7 °F 23.2 °F 69% 30.20 in 10.0 mi South 16.1 mph 19.6 mph N/A   Overcast
4:55 PM 34.0 °F 24.6 °F 23.7 °F 66% 30.19 in 10.0 mi South 13.8 mph 19.6 mph N/A   Mostly Cloudy
5:15 PM 35.6 °F 26.6 °F 23.4 °F 61% 30.17 in 10.0 mi South 13.8 mph - N/A   Scattered Clouds
5:35 PM 37.4 °F 27.2 °F 23.0 °F 56% 30.16 in 10.0 mi South 19.6 mph 23.0 mph N/A   Scattered Clouds
5:55 PM 38.3 °F 29.7 °F 21.6 °F 51% 30.14 in 10.0 mi South 15.0 mph 21.9 mph N/A   Clear
6:15 PM 39.0 °F 30.3 °F 21.0 °F 49% 30.13 in 10.0 mi South 16.1 mph 23.0 mph N/A   Clear
6:35 PM 39.6 °F 32.5 °F 21.2 °F 48% 30.13 in 10.0 mi South 11.5 mph 19.6 mph N/A   Clear
6:55 PM 39.6 °F 32.1 °F 20.5 °F 46% 30.13 in 10.0 mi South 12.7 mph 19.6 mph N/A   Clear
7:15 PM 38.7 °F 31.4 °F 21.0 °F 49% 30.13 in 10.0 mi South 11.5 mph - N/A   Clear
7:35 PM 37.6 °F 30.5 °F 21.2 °F 52% 30.12 in 10.0 mi South 10.4 mph - N/A   Clear
7:55 PM 34.7 °F 28.8 °F 21.9 °F 60% 30.13 in 10.0 mi SSE 6.9 mph - N/A   Clear
8:15 PM 32.4 °F 25.3 °F 22.1 °F 66% 30.12 in 10.0 mi SE 8.1 mph - N/A   Clear
8:35 PM 31.6 °F 24.4 °F 22.1 °F 68% 30.12 in 10.0 mi SE 8.1 mph - N/A   Clear
8:55 PM 29.7 °F 21.3 °F 21.2 °F 71% 30.13 in 10.0 mi ESE 9.2 mph - N/A   Clear
9:15 PM 29.7 °F 22.8 °F 21.2 °F 71% 30.14 in 10.0 mi ESE 6.9 mph - N/A   Clear
9:35 PM 28.2 °F 19.5 °F 21.0 °F 74% 30.14 in 10.0 mi ESE 9.2 mph - N/A   Clear
9:55 PM 28.9 °F 19.2 °F 20.7 °F 71% 30.14 in 10.0 mi SE 11.5 mph - N/A   Clear
10:15 PM 29.3 °F 19.6 °F 20.7 °F 70% 30.13 in 10.0 mi SE 11.5 mph - N/A   Clear
10:35 PM 30.6 °F 21.2 °F 20.5 °F 66% 30.13 in 10.0 mi SE 11.5 mph - N/A   Scattered Clouds
10:55 PM 30.7 °F 22.0 °F 20.1 °F 65% 30.13 in 10.0 mi SSE 10.4 mph - N/A   Clear
11:15 PM 30.0 °F 21.1 °F 20.1 °F 67% 30.13 in 10.0 mi SSE 10.4 mph - N/A   Clear
11:35 PM 30.6 °F 21.2 °F 20.3 °F 66% 30.14 in 10.0 mi SSE 11.5 mph - N/A   Clear
11:55 PM 31.1 °F 21.9 °F 20.8 °F 66% 30.13 in 10.0 mi SSE 11.5 mph - N/A   Mostly Cloudy